Retour au catalogue

STARLINK-31633

ActifCommunicationsVLEO
NORAD 59331·PAYLOAD·🇺🇸 United States

Lancé Mar 25, 2024 depuis Cape Canaveral Space Force Station

Loading…

Prochains Passages (prochaines 24 heures)

TLE

FraisSource: CelesTrak SupGP

Époque: Sep 14, 2026, 21:21 UTC

1 59331C 24057M   26257.89006944  .00014811  00000+0  53615-3 0  2575
2 59331  43.0029 198.7568 0001399 265.0040  58.4106 15.27590117    17

Suivez STARLINK-31633 en temps réel avec AllMySat

Download on the App Store